Regional Weather Roundup
Issued by NWS

Home | Current Version | Previous Version | Graphics & Text | Print | Product List | Glossary On
Versions: 1 2 3 4 5 6 7 8 9 10 11 12 13 14 15 16 17 18 19 20 21 22 23 24 25 26 27
000
ASUS45 KTFX 291710
RWRMT
MONTANA REGIONAL WEATHER ROUNDUP
NATIONAL WEATHER SERVICE GREAT FALLS MT
1100 AM MDT SAT APR 29 2017

NOTE: "FAIR" INDICATES FEW OR NO CLOUDS BELOW 12000 FEET WITH NO
SIGNIFICANT WEATHER AND/OR OBSTRUCTIONS TO VISIBILITY.

MTZ001>007-043-291800-
WEST OF THE DIVIDE

CITY           SKY/WX    TMP DP  RH WIND       PRES   REMARKS
KALISPELL      CLOUDY    46  39  76 S10       30.23F
MISSOULA       CLOUDY    44  32  62 E5        30.27F
BUTTE          SUNNY     43  23  45 VRB6      30.21F
MULLAN PASS    CLOUDY    34  30  85 CALM      30.21S
ANACONDA         N/A     45  23  42 E6        30.21F
DEER LODGE       N/A     45  27  49 CALM      30.26S
EUREKA           N/A     48  36  61 SE8       30.21F
HAMILTON         N/A     48  25  40 CALM      30.24F
LIBBY            N/A     45  39  81 CALM      30.22F
PLAINS           N/A     49  38  65 S2        30.24F
THOMPSON FALLS   N/A     47  41  80 CALM      30.28S
$$

MTZ008-052>055-291800-
SOUTHWEST MONTANA

CITY           SKY/WX    TMP DP  RH WIND       PRES   REMARKS
BOZEMAN        CLOUDY    49  35  58 E7        30.23S
DILLON         MOSUNNY   44  28  53 CALM      30.21F
W YELLOWSTONE  SUNNY     37  18  44 E5        30.21F
THREE FORKS      N/A     48  44  86 CALM      30.19F
TWIN BRIDGES     N/A     46  28  49 CALM      30.18F
$$

MTZ009-010-012-014-046-048-049-054-291800-
EAST SLOPES AND CENTRAL MONTANA

CITY           SKY/WX    TMP DP  RH WIND       PRES   REMARKS
CUT BANK       PTSUNNY   49  25  39 NW8G17    30.14F
GREAT FALLS    MOSUNNY   50  30  46 W13       30.18F
MALMSTROM AFB  SUNNY     50  32  49 SW13      30.19F
HELENA         MOSUNNY   51  29  42 VRB5      30.20F
AUGUSTA          N/A     46  22  37 NE3       30.16F
BOWMANS CRNR   PTSUNNY   49  28  44 SW10      30.16F
CHOTEAU          N/A     52  28  40 VRB5      30.18F
FAIRFIELD        N/A     48  28  46 W6        30.16F
POWER            N/A     49  28  44 W9        30.17S
RAYNESFORD       N/A     48  31  50 SW12G20   30.18F
ULM              N/A     50  31  49 W9        30.19S
$$

MTZ011-013-016-021-045-047-050-051-291800-
NORTH CENTRAL MONTANA

CITY           SKY/WX    TMP DP  RH WIND       PRES   REMARKS
HAVRE          CLOUDY    49  35  58 SE6       30.18F
LEWISTOWN      SUNNY     48  30  49 W7        30.19S
N BAR RANCH      N/A     48  32  53 S17       30.22F
CHINOOK          N/A     54  34  47 E8        30.18F
DENTON           N/A     49  33  54 MISG      30.16F
FORT BENTON      N/A     54  32  43 MISG      30.19F
GEYSER           N/A     48  32  52 NW8       30.17F
GRASS RANGE      N/A     49  35  59 S3        30.16F
JUDITH GAP       N/A     44  32  63 S15G24    30.19F
STANFORD         N/A     47  29  47 SE6       30.17F
WINIFRED         N/A     49  33  54 CALM      30.18F
$$

MTZ017>020-022>027-061-062-291800-
NORTHEAST MONTANA

CITY           SKY/WX    TMP DP  RH WIND       PRES   REMARKS
GLASGOW        SUNNY     53  29  39 SE3       30.24S
JORDAN           N/A     52  37  56 SE10      30.24S
SIDNEY         CLOUDY    53  34  48 VRB3      30.27F
WOLF POINT     SUNNY     55  28  35 VRB6      30.26S
PLENTYWOOD       N/A     52  25  35 W6        30.24S
POPLAR           N/A     54  34  47 SW3       30.27S
SCOBEY           N/A     53  24  32 W6        30.20S
$$

MTZ028>42-056>058-291800-
SOUTHCENTRAL AND SOUTHEAST MONTANA

CITY           SKY/WX    TMP DP  RH WIND       PRES   REMARKS
BAKER          SUNNY     53  25  33 VRB6      30.27F
BILLINGS       MOSUNNY   47  34  60 SW5       30.26S
LIVINGSTON     SUNNY     47  30  51 W9        30.21F
MILES CITY     MOSUNNY   53  29  39 S7        30.26F
BIG TIMBER     MOSUNNY   45  34  65 S3        30.24F
EKALAKA          N/A     52  23  32 E5        30.21F
LAUREL           N/A     46  31  56 SE6       30.21F
ROUNDUP          N/A     49  33  54 S6        30.13S
$$

REGIONAL REPORTS...DAKOTAS

CITY           SKY/WX    TMP DP  RH WIND       PRES   REMARKS
WILLISTON      MOSUNNY   56  31  38 CALM      30.26S
MINOT          MOSUNNY   60  25  26 S20       30.23F
DICKINSON      SUNNY     54  18  24 SW5       30.24F
BEACH          PTSUNNY   52  23  32 SW7       30.29S
TIOGA            N/A     54  30  40 VRB6G13   30.26S
WATFORD CITY   PTSUNNY   57  32  38 W9        30.25S
BISMARCK       MOSUNNY   58  17  20 CALM      30.31S
GRAND FORKS    MOSUNNY   53  23  31 S5        30.33F
FARGO          SUNNY     53  19  26 VRB5      30.33F
BUFFALO SD       N/A     51  18  27 CALM      30.22S
RAPID CITY     PTSUNNY   50  18  28 E6        30.28F
$$

REGIONAL REPORTS...WYOMING/IDAHO/WASHINGTON

CITY           SKY/WX    TMP DP  RH WIND       PRES   REMARKS
GILLETTE       SUNNY     36  29  75 S5        30.29R
SHERIDAN       SUNNY     41  26  55 CALM      30.28S
BUFFALO WY     SUNNY     37  24  59 S9        30.27S WCI  30
CODY           CLOUDY    39  29  67 VRB3      30.26S
YELLOWSTONE LA   N/A     31  16  54 SE3       30.22S
IDAHO FALLS    MOSUNNY   44  31  60 CALM      30.24R
SALMON         SUNNY     45  27  49 CALM      30.24F
BOISE          SUNNY     50  30  46 NW5       30.26S
SPOKANE        MOSUNNY   50  34  54 SW12      30.23F
$$

REGIONAL REPORTS...ALBERTA

CITY           SKY/WX    TMP DP  RH WIND       PRES   REMARKS
EDMONTON       PTSUNNY   48  36  61 W6        30.06F
CALGARY        PTSUNNY   48  23  37 VRB7      30.09F
LETHBRIDGE     MOSUNNY   52  34  50 W12G21    30.12F
MEDICINE HAT   MOSUNNY   52  37  58 S13G20    30.13F
WATERTON GATE    N/A     48  28  46 SW14G22     N/A
MILK RIVER       N/A     54  28  37 W12G17      N/A
ONEFOUR          N/A     48  37  66 S7          N/A
$$

REGIONAL REPORTS...SASKATCHEWAN

CITY           SKY/WX    TMP DP  RH WIND       PRES   REMARKS
SWIFT CURRENT  SUNNY     48  25  40 SW15      30.17F
REGINA         MOSUNNY   48  34  57 W14       30.20F
SASKATOON      MOSUNNY   48  30  49 SW3       30.16S
CYPRESS HILLS    N/A     41  30  65 S10         N/A
VAL MARIE        N/A     52  28  40 S10         N/A
ASSINIBOIA       N/A     50  32  50 SW7         N/A
$$




USA.gov is the U.S. government's official web portal to all federal, state and local government web resources and services.